| time (UTC) | temp C | wind direction | speed KPH | gust KPH | rain 1hr cm | rain 24hr cm | rain mn cm | humidity % | barometer mb |
| 20260904115759 | 22 | 169 | 3.2 | 12.9 | 0.00 | 0.00 | 0.00 | 76 | 1021.7 |
| 20260904115720 | 23 | 114 | 6.4 | 11.3 | 0.00 | 0.00 | 0.00 | 74 | 1021.7 |
| 20260904113758 | 23 | 120 | 8.0 | 16.1 | 0.00 | 0.00 | 0.00 | 72 | 1021.6 |
| 20260904113238 | 23 | 135 | 8.0 | 14.5 | 0.00 | 0.00 | 0.00 | 74 | 1021.7 |
| 20260904111758 | 23 | 171 | 6.4 | 14.5 | 0.00 | 0.00 | 0.00 | 72 | 1021.5 |
| 20260904111238 | 23 | 119 | 8.0 | 12.9 | 0.00 | 0.00 | 0.00 | 72 | 1021.6 |
| 20260904105758 | 22 | 153 | 4.8 | 12.9 | 0.00 | 0.00 | 0.00 | 75 | 1021.6 |
| 20260904104758 | 22 | 136 | 6.4 | 14.5 | 0.00 | 0.00 | 0.00 | 75 | 1021.6 |
| 20260904103757 | 23 | 99 | 3.2 | 16.1 | 0.00 | 0.00 | 0.00 | 75 | 1021.3 |
| 20260904103716 | 22 | 250 | 0.0 | 6.4 | 0.00 | 0.00 | 0.00 | 76 | 1021.6 |
| 20260904101758 | 21 | 65 | 1.6 | 9.7 | 0.00 | 0.00 | 0.00 | 78 | 1021.6 |
| 20260904100758 | 21 | 122 | 4.8 | 9.7 | 0.00 | 0.00 | 0.00 | 77 | 1021.6 |
| 20260904095757 | 21 | 124 | 3.2 | 6.4 | 0.00 | 0.00 | 0.00 | 79 | 1021.3 |
| 20260904095238 | 21 | 168 | 1.6 | 9.7 | 0.00 | 0.00 | 0.00 | 80 | 1021.5 |
| 20260904093759 | 22 | 138 | 6.4 | 12.9 | 0.00 | 0.00 | 0.00 | 76 | 1021.5 |
| 20260904092758 | 22 | 221 | 0.0 | 9.7 | 0.00 | 0.00 | 0.00 | 76 | 1021.2 |
| 20260904091758 | 23 | 123 | 1.6 | 4.8 | 0.00 | 0.00 | 0.00 | 73 | 1021.3 |
| 20260904090757 | 22 | 100 | 3.2 | 3.2 | 0.00 | 0.00 | 0.00 | 74 | 1021.1 |
| 20260904085758 | 21 | 76 | 0.0 | 3.2 | 0.00 | 0.00 | 0.00 | 77 | 1021.3 |
| 20260904084758 | 20 | 33 | 0.0 | 4.8 | 0.00 | 0.00 | 0.00 | 75 | 1021.2 |
| 20260904083758 | 19 | 42 | 3.2 | 3.2 | 0.00 | 0.00 | 0.00 | 74 | 1021.2 |
| 20260904082758 | 19 | 324 | 0.0 | 3.2 | 0.00 | 0.00 | 0.00 | 78 | 1021.2 |
| 20260904081757 | 18 | 340 | 4.8 | 6.4 | 0.00 | 0.00 | 0.00 | 76 | 1021.5 |
| 20260904080758 | 17 | 339 | 1.6 | 6.4 | 0.00 | 0.00 | 0.00 | 76 | 1021.2 |
| 20260904075758 | 17 | 346 | 4.8 | 6.4 | 0.00 | 0.00 | 0.00 | 76 | 1021.1 |
| 20260904074758 | 16 | 331 | 6.4 | 6.4 | 0.00 | 0.00 | 0.00 | 76 | 1021.0 |
| 20260904073758 | 17 | 344 | 4.8 | 6.4 | 0.00 | 0.00 | 0.00 | 79 | 1021.1 |
| 20260904073235 | 16 | 317 | 4.8 | 6.4 | 0.00 | 0.00 | 0.00 | 82 | 1020.9 |
| 20260904071758 | 16 | 2 | 4.8 | 6.4 | 0.00 | 0.00 | 0.00 | 83 | 1021.1 |
| 20260904070758 | 17 | 353 | 3.2 | 9.7 | 0.00 | 0.00 | 0.00 | 86 | 1020.8 |
| 20260904070243 | 17 | 344 | 4.8 | 6.4 | 0.00 | 0.00 | 0.00 | 85 | 1020.8 |
| 20260904065233 | 17 | 353 | 4.8 | 6.4 | 0.00 | 0.00 | 0.00 | 83 | 1020.9 |
| 20260904063757 | 16 | 343 | 6.4 | 6.4 | 0.00 | 0.00 | 0.00 | 79 | 1020.8 |
| 20260904062758 | 16 | 329 | 4.8 | 6.4 | 0.00 | 0.00 | 0.00 | 76 | 1020.5 |
| 20260904061757 | 16 | 342 | 3.2 | 11.3 | 0.00 | 0.00 | 0.00 | 78 | 1020.4 |
| 20260904060759 | 16 | 339 | 3.2 | 6.4 | 0.00 | 0.00 | 0.00 | 76 | 1020.4 |
| 20260904055758 | 16 | 1 | 6.4 | 9.7 | 0.00 | 0.00 | 0.00 | 75 | 1020.3 |
| 20260904054758 | 17 | 339 | 3.2 | 9.7 | 0.00 | 0.00 | 0.00 | 81 | 1020.3 |
| 20260904053758 | 16 | 342 | 6.4 | 9.7 | 0.00 | 0.00 | 0.00 | 82 | 1020.1 |
| 20260904053236 | 16 | 334 | 4.8 | 6.4 | 0.00 | 0.00 | 0.00 | 85 | 1020.2 |
| 20260904051758 | 17 | 358 | 4.8 | 9.7 | 0.00 | 0.00 | 0.00 | 87 | 1020.2 |
| 20260904050758 | 17 | 318 | 4.8 | 6.4 | 0.00 | 0.00 | 0.00 | 89 | 1020.0 |
| 20260904045758 | 16 | 343 | 4.8 | 6.4 | 0.00 | 0.00 | 0.00 | 87 | 1020.1 |
| 20260904045235 | 16 | 343 | 3.2 | 6.4 | 0.00 | 0.00 | 0.00 | 85 | 1020.1 |
| 20260904043758 | 17 | 343 | 4.8 | 6.4 | 0.00 | 0.00 | 0.00 | 86 | 1020.2 |
| 20260904042758 | 17 | 343 | 3.2 | 6.4 | 0.00 | 0.00 | 0.00 | 87 | 1020.1 |
| 20260904041758 | 17 | 353 | 6.4 | 9.7 | 0.00 | 0.00 | 0.00 | 88 | 1019.9 |
| 20260904040758 | 17 | 340 | 3.2 | 6.4 | 0.00 | 0.00 | 0.00 | 89 | 1020.0 |
| 20260904035758 | 17 | 341 | 6.4 | 6.4 | 0.00 | 0.00 | 0.00 | 87 | 1020.4 |
| 20260904034758 | 17 | 335 | 3.2 | 9.7 | 0.00 | 0.00 | 0.00 | 85 | 1020.4 |
| 20260904034239 | 17 | 340 | 4.8 | 6.4 | 0.00 | 0.00 | 0.00 | 86 | 1020.3 |
| 20260904032758 | 17 | 338 | 4.8 | 9.7 | 0.00 | 0.00 | 0.00 | 88 | 1020.2 |
| 20260904031758 | 17 | 338 | 4.8 | 6.4 | 0.00 | 0.00 | 0.00 | 89 | 1020.1 |
| 20260904030758 | 17 | 353 | 6.4 | 9.7 | 0.00 | 0.00 | 0.00 | 87 | 1020.3 |
| 20260904025758 | 17 | 354 | 4.8 | 6.4 | 0.00 | 0.00 | 0.00 | 87 | 1020.7 |
| 20260904024758 | 17 | 343 | 3.2 | 9.7 | 0.00 | 0.00 | 0.00 | 86 | 1020.6 |
| 20260904023757 | 17 | 340 | 4.8 | 6.4 | 0.00 | 0.00 | 0.00 | 87 | 1020.6 |
| 20260904022758 | 17 | 345 | 4.8 | 9.7 | 0.00 | 0.00 | 0.00 | 87 | 1020.8 |
| 20260904021758 | 18 | 15 | 3.2 | 6.4 | 0.00 | 0.00 | 0.00 | 87 | 1020.9 |
| 20260904020758 | 18 | 5 | 6.4 | 9.7 | 0.00 | 0.00 | 0.00 | 87 | 1021.0 |
| 20260904015758 | 18 | 345 | 4.8 | 6.4 | 0.00 | 0.00 | 0.00 | 87 | 1021.3 |
| 20260904014758 | 18 | 345 | 3.2 | 6.4 | 0.00 | 0.00 | 0.00 | 87 | 1021.3 |
| 20260904014153 | 18 | 350 | 3.2 | 6.4 | 0.00 | 0.00 | 0.00 | 89 | 1021.8 |
| 20260904013828 | 18 | 341 | 1.6 | 6.4 | 0.00 | 0.00 | 0.00 | 87 | 1021.5 |
| 20260904011758 | 18 | 350 | 4.8 | 6.4 | 0.00 | 0.00 | 0.00 | 88 | 1021.7 |
| 20260904010758 | 18 | 344 | 4.8 | 4.8 | 0.00 | 0.00 | 0.00 | 88 | 1021.3 |
| 20260904005758 | 18 | 2 | 1.6 | 6.4 | 0.00 | 0.00 | 0.00 | 88 | 1021.3 |
| 20260904004758 | 18 | 0 | 3.2 | 4.8 | 0.00 | 0.00 | 0.00 | 88 | 1021.9 |
| 20260904003758 | 18 | 343 | 3.2 | 4.8 | 0.00 | 0.00 | 0.00 | 88 | 1021.9 |
| 20260904002758 | 17 | 355 | 4.8 | 6.4 | 0.00 | 0.00 | 0.00 | 87 | 1021.8 |
| 20260904001758 | 17 | 352 | 3.2 | 6.4 | 0.00 | 0.00 | 0.00 | 85 | 1022.1 |
| 20260904000758 | 17 | 340 | 3.2 | 9.7 | 0.00 | 0.00 | 0.00 | 84 | 1021.9 |
| 20260903235758 | 18 | 337 | 4.8 | 11.3 | 0.00 | 0.00 | 0.00 | 86 | 1021.7 |
| 20260903234758 | 18 | 337 | 4.8 | 6.4 | 0.00 | 0.00 | 0.00 | 87 | 1021.8 |
| 20260903234719 | 18 | 340 | 3.2 | 4.8 | 0.00 | 0.00 | 0.00 | 86 | 1022.0 |
| 20260903232758 | 18 | 353 | 3.2 | 3.2 | 0.00 | 0.00 | 0.00 | 86 | 1022.0 |
| 20260903231758 | 18 | 349 | 3.2 | 4.8 | 0.00 | 0.00 | 0.00 | 86 | 1021.9 |
| 20260903231238 | 18 | 329 | 1.6 | 6.4 | 0.00 | 0.00 | 0.00 | 88 | 1022.0 |
| 20260903225758 | 18 | 343 | 4.8 | 9.7 | 0.00 | 0.00 | 0.00 | 88 | 1021.9 |
| 20260903224758 | 18 | 352 | 6.4 | 6.4 | 0.00 | 0.00 | 0.00 | 88 | 1022.1 |
| 20260903223800 | 19 | 340 | 1.6 | 4.8 | 0.00 | 0.00 | 0.00 | 89 | 1021.7 |
| 20260903222800 | 19 | 247 | 1.6 | 3.2 | 0.00 | 0.00 | 0.00 | 89 | 1021.9 |
| 20260903221804 | 19 | 343 | 3.2 | 4.8 | 0.00 | 0.00 | 0.00 | 89 | 1021.9 |
| 20260903220758 | 19 | 343 | 1.6 | 4.8 | 0.00 | 0.00 | 0.00 | 89 | 1022.0 |
| 20260903220246 | 19 | 2 | 3.2 | 4.8 | 0.00 | 0.00 | 0.00 | 89 | 1021.9 |
| 20260903214758 | 19 | 28 | 1.6 | 3.2 | 0.00 | 0.00 | 0.00 | 89 | 1022.0 |
| 20260903214722 | 19 | 331 | 0.0 | 3.2 | 0.00 | 0.00 | 0.00 | 89 | 1022.0 |
| 20260903213707 | 18 | 10 | 0.0 | 3.2 | 0.00 | 0.00 | 0.00 | 89 | 1022.1 |
| 20260903211758 | 18 | 340 | 1.6 | 3.2 | 0.00 | 0.00 | 0.00 | 89 | 1022.0 |
| 20260903211240 | 19 | 338 | 3.2 | 3.2 | 0.00 | 0.00 | 0.00 | 89 | 1021.6 |
| 20260903205758 | 19 | 4 | 0.0 | 1.6 | 0.00 | 0.00 | 0.00 | 89 | 1021.5 |
| 20260903205238 | 19 | 322 | 0.0 | 3.2 | 0.00 | 0.00 | 0.00 | 89 | 1021.2 |
| 20260903203758 | 19 | 335 | 3.2 | 3.2 | 0.00 | 0.00 | 0.00 | 89 | 1021.3 |
| 20260903202758 | 19 | 121 | 0.0 | 1.6 | 0.00 | 0.00 | 0.00 | 89 | 1021.5 |
| 20260903201758 | 20 | 77 | 0.0 | 3.2 | 0.00 | 0.00 | 0.00 | 88 | 1021.1 |
| 20260903200747 | 20 | 210 | 0.0 | 1.6 | 0.00 | 0.00 | 0.00 | 88 | 1020.7 |
| 20260903200229 | 20 | 98 | 0.0 | 3.2 | 0.00 | 0.00 | 0.00 | 88 | 1020.8 |
| 20260903194746 | 20 | 111 | 0.0 | 3.2 | 0.00 | 0.00 | 0.00 | 87 | 1020.7 |
| 20260903193746 | 20 | 135 | 0.0 | 3.2 | 0.00 | 0.00 | 0.00 | 86 | 1020.5 |
| 20260903193220 | 20 | 190 | 1.6 | 3.2 | 0.00 | 0.00 | 0.00 | 85 | 1020.6 |
| 20260903192710 | 20 | 115 | 0.0 | 1.6 | 0.00 | 0.00 | 0.00 | 85 | 1020.3 |
| 20260903190746 | 20 | 68 | 0.0 | 4.8 | 0.00 | 0.00 | 0.00 | 84 | 1020.4 |
| 20260903190235 | 21 | 74 | 0.0 | 4.8 | 0.00 | 0.00 | 0.00 | 83 | 1020.3 |
| 20260903184747 | 21 | 228 | 0.0 | 4.8 | 0.00 | 0.00 | 0.00 | 83 | 1020.3 |
| 20260903183745 | 21 | 107 | 3.2 | 6.4 | 0.00 | 0.00 | 0.00 | 82 | 1020.3 |
| 20260903182746 | 21 | 139 | 1.6 | 4.8 | 0.00 | 0.00 | 0.00 | 82 | 1020.4 |
| 20260903181747 | 21 | 146 | 3.2 | 6.4 | 0.00 | 0.00 | 0.00 | 82 | 1020.6 |
| 20260903180746 | 21 | 203 | 8.0 | 11.3 | 0.00 | 0.00 | 0.00 | 82 | 1020.2 |
| 20260903180234 | 21 | 223 | 3.2 | 11.3 | 0.00 | 0.00 | 0.00 | 82 | 1020.5 |
| 20260903174746 | 21 | 170 | 4.8 | 12.9 | 0.00 | 0.00 | 0.00 | 81 | 1020.5 |
| 20260903173746 | 21 | 188 | 3.2 | 14.5 | 0.00 | 0.00 | 0.00 | 80 | 1020.6 |
| 20260903172746 | 21 | 212 | 6.4 | 16.1 | 0.00 | 0.00 | 0.00 | 79 | 1020.5 |
| 20260903171745 | 21 | 172 | 3.2 | 16.1 | 0.00 | 0.00 | 0.00 | 78 | 1020.5 |
| 20260903171223 | 21 | 215 | 4.8 | 17.7 | 0.00 | 0.00 | 0.00 | 78 | 1020.3 |
| 20260903165746 | 22 | 222 | 12.9 | 14.5 | 0.00 | 0.00 | 0.00 | 75 | 1020.3 |
| 20260903164746 | 23 | 186 | 4.8 | 14.5 | 0.00 | 0.00 | 0.00 | 73 | 1020.0 |
| 20260903163746 | 23 | 171 | 4.8 | 14.5 | 0.00 | 0.00 | 0.00 | 71 | 1019.6 |
| 20260903162746 | 24 | 156 | 8.0 | 11.3 | 0.00 | 0.00 | 0.00 | 69 | 1019.8 |
| 20260903161746 | 24 | 206 | 4.8 | 12.9 | 0.00 | 0.00 | 0.00 | 68 | 1019.7 |
| 20260903160746 | 24 | 123 | 6.4 | 14.5 | 0.00 | 0.00 | 0.00 | 69 | 1019.8 |
| 20260903155747 | 24 | 174 | 8.0 | 14.5 | 0.00 | 0.00 | 0.00 | 69 | 1019.8 |
| 20260903154746 | 25 | 185 | 6.4 | 12.9 | 0.00 | 0.00 | 0.00 | 68 | 1019.7 |
| 20260903153746 | 25 | 136 | 6.4 | 14.5 | 0.00 | 0.00 | 0.00 | 68 | 1019.9 |
| 20260903152746 | 25 | 177 | 6.4 | 12.9 | 0.00 | 0.00 | 0.00 | 68 | 1019.6 |
| 20260903151745 | 25 | 180 | 1.6 | 14.5 | 0.00 | 0.00 | 0.00 | 67 | 1019.7 |
| 20260903150746 | 25 | 220 | 6.4 | 12.9 | 0.00 | 0.00 | 0.00 | 67 | 1019.8 |
| 20260903145746 | 25 | 210 | 3.2 | 14.5 | 0.00 | 0.00 | 0.00 | 68 | 1019.9 |
| 20260903144746 | 25 | 190 | 8.0 | 12.9 | 0.00 | 0.00 | 0.00 | 67 | 1019.9 |
| 20260903144225 | 26 | 179 | 8.0 | 12.9 | 0.00 | 0.00 | 0.00 | 66 | 1019.9 |
| 20260903142746 | 25 | 142 | 3.2 | 9.7 | 0.00 | 0.00 | 0.00 | 67 | 1019.8 |
| 20260903141746 | 25 | 178 | 4.8 | 12.9 | 0.00 | 0.00 | 0.00 | 68 | 1019.9 |
| 20260903140746 | 25 | 197 | 6.4 | 12.9 | 0.00 | 0.00 | 0.00 | 70 | 1019.9 |
| 20260903140223 | 25 | 224 | 8.0 | 12.9 | 0.00 | 0.00 | 0.00 | 69 | 1020.0 |
| 20260903134746 | 25 | 175 | 8.0 | 12.9 | 0.00 | 0.00 | 0.00 | 69 | 1020.0 |
| 20260903134232 | 25 | 179 | 9.7 | 14.5 | 0.00 | 0.00 | 0.00 | 71 | 1020.1 |
| 20260903132746 | 25 | 199 | 3.2 | 14.5 | 0.00 | 0.00 | 0.00 | 70 | 1020.1 |
| 20260903131746 | 25 | 139 | 6.4 | 16.1 | 0.00 | 0.00 | 0.00 | 72 | 1020.3 |
| 20260903130746 | 24 | 202 | 3.2 | 16.1 | 0.00 | 0.00 | 0.00 | 73 | 1020.3 |
| 20260903125746 | 24 | 72 | 4.8 | 11.3 | 0.00 | 0.00 | 0.00 | 71 | 1020.5 |
| 20260903124746 | 24 | 101 | 6.4 | 12.9 | 0.00 | 0.00 | 0.00 | 72 | 1020.6 |
| 20260903123746 | 23 | 121 | 9.7 | 12.9 | 0.00 | 0.00 | 0.00 | 74 | 1020.7 |
| 20260903122746 | 23 | 117 | 1.6 | 12.9 | 0.00 | 0.00 | 0.00 | 77 | 1020.9 |
| 20260903121746 | 22 | 198 | 9.7 | 14.5 | 0.00 | 0.00 | 0.00 | 77 | 1021.1 |
| 20260903120745 | 22 | 127 | 9.7 | 11.3 | 0.00 | 0.00 | 0.00 | 76 | 1021.2 |